Back to catalog

STARLINK-34005

AliveCommunicationsVLEO
NORAD 63935·PAYLOAD·🇺🇸 United States

Launched May 13, 2025 from Vandenberg Space Force Base

Loading…

Next Passes (next 24 hours)

TLE

FreshSource: CelesTrak SupGP

Epoch: Sep 14, 2026, 14:17 UTC

1 63935C 25098K   26257.59562500  .00084143  00000+0  29277-2 0  2579
2 63935  70.0002 156.5414 0003256 269.8659 291.3180 15.29529321    18

Track STARLINK-34005 in real time with AllMySat

Download on the App Store